{"data":{"norad_id":53787,"intl_designator":"2022-111Q","name":"STARLINK-4743","alt_names":[],"object_type":"PAYLOAD","status":"ACTIVE","operator":null,"country":"US","launch_date":"2022-09-11","launch_site_code":"AFETR","launch_vehicle":null,"mission":null,"orbit_class":"UNKNOWN","rcs_meters":null,"size_class":null,"mass_kg":null,"dimensions":null,"purposes":["comms"],"wikipedia_slug":null,"has_3d_model":false,"image_url":null,"decayed_at":null,"tle_current":{"epoch":"2026-05-25T02:22:45.556032Z","epoch_age_seconds":62524,"freshness":"FRESH","line1":"1 53787U 22111Q   26145.09913838 -.00000123  00000+0  10337-4 0  9990","line2":"2 53787  53.2151 290.9454 0001372  94.1102 266.0047 15.08831242205233","mean_motion":15.08831242,"eccentricity":0.0001372,"inclination_deg":53.2151,"raan_deg":290.9454,"arg_perigee_deg":94.1102,"mean_anomaly_deg":266.0047,"bstar":1.0337e-5,"rev_number":20523,"period_min":95.43810864436,"perigee_km":538.82102193371,"apogee_km":540.71929565809,"semimajor_km":6917.9071587959,"source":"CELESTRAK","updated_at":"2026-05-25T13:38:17.543498Z"}}}